Location: Agadir Irigdalene
(31.2522°N, 8.7797°W)
Time: 16:17:49
(UTC+00:00)

SL-24 DEB - Pass Details

Date: 01 December 2020
Orbit: 664 x 701 km, 92.0° (Epoch: 25 January)

Event Time Altitude Azimuth Distance (km) Brightness Sun altitude
Rises 18:47:33 0° 3° (N) 3,067 7.4 -15.9°
Reaches altitude 10° 18:49:49 10° 2° (N) 2,142 6.6 -16.4°
Maximum altitude 18:54:32 78° 277° (W) 701 4.4 -17.3°
Drops below altitude 10° 18:59:11 10° 191° (S) 2,106 7.1 -18.3°
Sets 19:01:24 0° 190° (S) 3,011 7.9 -18.7°
